Tracking 29892 objects as of 21-Nov-2024
HD Live streaming from Space Station
objects crossing your sky now

STARLINK-30851

Track STARLINK-30851 now!
10-day predictions
STARLINK-30851 is classified as:


NORAD ID: 58215
Int'l Code: 2023-170K
Perigee: 565.4 km
Apogee: 567.1 km
Inclination: 43.0 °
Period: 95.8 minutes
Semi major axis: 6937 km
RCS: Unknown
Launch date: November 3, 2023
Source: United States (US)
Launch site: AIR FORCE EASTERN TEST RANGE (AFETR)
Your satellite tracking list
Your tracking list is empty




NASA's NSSDC Master Catalog

Two Line Element Set (TLE):
1 58215U 23170K   24325.92235759  .00001487  00000-0  12513-3 0  9997
2 58215  43.0030 250.1494 0001226 277.4777  82.5927 15.02536351 58917
Source of the keplerian elements: AFSPC